1998-067UG

Last updated on Wed Sep 14 2022 00:02:05 GMT+0000 (Coordinated Universal Time)

1 53769U 98067UG 22256.31313264 .00038235 00000+0 64565-3 0 9999 2 53769 51.6410 259.9529 0001413 319.2718 40.8165 15.51243012 1087
UTC large
Height (km)
Speed (km/s)
/
Latitude / Longitude
Inclination (degrees)
Orbital Period (minutes)
Azimuth
Elevation
Range (km)
Doppler Factor

Next 0 passes for location: London (51.5072 / 0.1276)

Sorry there are no passes over London.